Weather History for Cooperstown, ND

Change the Weather History Date:

Wednesday, February 13, 2013

  Actual Average (KJMS) Record (KJMS)
Temperature  
Mean Temperature 21 °F 14 °F  
Max Temperature 28 °F 24 °F 55 °F (1983)
Min Temperature 14 °F 5 °F -31 °F (1929)
Degree Days  
Heating Degree Days 44 51  
Month to date heating degree days 681  
Since 1 July heating degree days 6043  
Cooling Degree Days 0 0  
Month to date cooling degree days 0  
Year to date cooling degree days 0  
Moisture  
Dew Point 22 °F    
Average Humidity 100    
Maximum Humidity 100    
Minimum Humidity 93    
Precipitation  
Precipitation 1.59 in 0.01 in 0.16 in (1962)
Month to date precipitation 0.14  
Year to date precipitation 0.59  
Sea Level Pressure  
Sea Level Pressure 29.65 in    
Wind  
Wind Speed 9 mph (NW)    
Max Wind Speed 15 mph    
Max Gust Speed -    
Visibility 7 miles    
Events Rain , Snow    
T = Trace of Precipitation, MM = Missing Value Source: NWS Daily Summary

Daily Weather History Graph

Daily Weather History Graph

Search for Another Location

Airport:

Trip Planner

Search our weather history database for the weather conditions in past years. The results will help you decide how hot, cold, wet, or windy it might be!

Date:

Astronomy

Feb. 13, 2013 Rise Set
Actual Time 7:40 AM CST 5:53 PM CST
Civil Twilight 7:08 AM CST 6:25 PM CST
Nautical Twilight 6:32 AM CST 7:01 PM CST
Astronomical Twilight 5:57 AM CST 7:36 PM CST
Moon 8:51 AM CST (2/13) 10:19 PM CST (2/13)
Length of Visible Light 11h 16m
Length of Day
10h 12m
Waxing Crescent, 14% of the Moon is Illuminated
Feb 13
Waxing Crescent
Feb 17
First Quarter
Feb 25
Full
Mar 4
Last Quarter
Mar 11
New

Hourly Weather History & Observations

Time (CST) Temp. Windchill Dew Point Humidity Pressure Visibility Wind Dir Wind Speed Gust Speed Precip Events Conditions
12:15 AM 26.6 °F 16.8 °F 24.8 °F 93% 29.71 in 10.0 mi West 10.4 mph - N/A   Clear
12:35 AM 26.6 °F 16.8 °F 24.8 °F 93% 29.71 in 10.0 mi West 10.4 mph - N/A   Clear
12:55 AM 24.8 °F 12.9 °F 23.0 °F 93% 29.70 in 10.0 mi WSW 13.8 mph - N/A   Clear
1:15 AM 23.0 °F 11.1 °F 23.0 °F 100% 29.70 in 10.0 mi WSW 12.7 mph - N/A   Clear
1:35 AM 23.0 °F 12.4 °F 23.0 °F 100% 29.70 in 10.0 mi WSW 10.4 mph - N/A   Clear
1:55 AM 21.2 °F 10.9 °F 21.2 °F 100% 29.70 in 10.0 mi West 9.2 mph - N/A   Clear
2:15 AM 19.4 °F 7.9 °F 19.4 °F 100% 29.69 in 10.0 mi West 10.4 mph - N/A   Clear
2:35 AM 19.4 °F 6.6 °F 19.4 °F 100% 29.69 in 10.0 mi West 12.7 mph - N/A   Clear
2:55 AM 17.6 °F 3.7 °F 17.6 °F 100% 29.68 in 10.0 mi West 13.8 mph - N/A   Clear
3:15 AM 17.6 °F 5.0 °F 17.6 °F 100% 29.68 in 10.0 mi West 11.5 mph - N/A   Clear
3:35 AM 19.4 °F 7.2 °F 19.4 °F 100% 29.67 in 10.0 mi West 11.5 mph - N/A   Clear
3:55 AM 17.6 °F 3.2 °F 17.6 °F 100% 29.67 in 10.0 mi West 15.0 mph - N/A   Clear
4:15 AM 17.6 °F 5.7 °F 17.6 °F 100% 29.65 in 10.0 mi West 10.4 mph - N/A   Clear
4:35 AM 17.6 °F 5.0 °F 17.6 °F 100% 29.65 in 10.0 mi West 11.5 mph - N/A   Clear
4:55 AM 17.6 °F 6.4 °F 17.6 °F 100% 29.64 in 10.0 mi West 9.2 mph - N/A   Clear
5:15 AM 19.4 °F 9.5 °F 19.4 °F 100% 29.64 in 10.0 mi WNW 8.1 mph - N/A   Clear
5:35 AM 17.6 °F 5.0 °F 17.6 °F 100% 29.64 in 10.0 mi West 11.5 mph - N/A   Clear
5:55 AM 17.6 °F 6.4 °F 17.6 °F 100% 29.64 in 10.0 mi West 9.2 mph - N/A   Clear
6:15 AM 19.4 °F 7.9 °F 19.4 °F 100% 29.64 in 10.0 mi West 10.4 mph - N/A   Scattered Clouds
6:35 AM 19.4 °F 8.6 °F 19.4 °F 100% 29.63 in 10.0 mi West 9.2 mph - N/A   Mostly Cloudy
6:55 AM 19.4 °F 14.3 °F 19.4 °F 100% 29.63 in 10.0 mi WNW 3.5 mph - N/A   Overcast
7:15 AM 19.4 °F - 19.4 °F 100% 29.63 in 10.0 mi Calm Calm - N/A   Mostly Cloudy
7:35 AM 19.4 °F 10.4 °F 19.4 °F 100% 29.62 in 10.0 mi WSW 6.9 mph - N/A   Scattered Clouds
7:55 AM 19.4 °F - 19.4 °F 100% 29.61 in 10.0 mi Calm Calm - N/A   Clear
8:15 AM 21.2 °F 13.6 °F 21.2 °F 100% 29.62 in 10.0 mi West 5.8 mph - N/A   Clear
8:35 AM 21.2 °F 13.6 °F 21.2 °F 100% 29.62 in 10.0 mi West 5.8 mph - N/A   Clear
8:55 AM 23.0 °F 18.4 °F 23.0 °F 100% 29.61 in 10.0 mi West 3.5 mph - N/A   Clear
9:15 AM 23.0 °F 18.4 °F 23.0 °F 100% 29.61 in 10.0 mi West 3.5 mph - N/A   Clear
9:35 AM 23.0 °F - 23.0 °F 100% 29.60 in 10.0 mi Calm Calm - N/A   Clear
9:55 AM 24.8 °F 20.5 °F 24.8 °F 100% 29.60 in 10.0 mi WSW 3.5 mph - N/A   Clear
10:15 AM 24.8 °F 19.1 °F 24.8 °F 100% 29.60 in 6.0 mi WSW 4.6 mph - N/A   Mostly Cloudy
10:55 AM 26.6 °F 20.0 °F 26.6 °F 100% 29.59 in 1.0 mi WSW 5.8 mph - 0.02 in Snow Light Snow
11:15 AM 26.6 °F 21.2 °F 26.6 °F 100% 29.59 in 0.8 mi WSW 4.6 mph - 0.04 in Snow Light Snow
11:35 AM 26.6 °F - 26.6 °F 100% 29.59 in 0.8 mi Calm Calm - 0.20 in Snow Light Snow
11:55 AM 26.6 °F - 26.6 °F 100% 29.58 in 0.8 mi Calm Calm - 0.31 in Snow Light Snow
12:15 PM 26.6 °F - 26.6 °F 100% 29.57 in 0.8 mi Calm Calm - 0.13 in Snow Light Snow
12:35 PM 28.4 °F - 28.4 °F 100% 29.57 in 0.8 mi Calm Calm - 0.33 in Snow Light Snow
12:55 PM 28.4 °F - 28.4 °F 100% 29.56 in 0.8 mi Calm Calm - 0.47 in Snow Light Snow
1:15 PM 28.4 °F 24.6 °F 28.4 °F 100% 29.56 in 1.0 mi WNW 3.5 mph - 0.07 in Snow Light Snow
1:35 PM 28.4 °F 24.6 °F 28.4 °F 100% 29.56 in 1.2 mi NW 3.5 mph - 0.17 in Snow Light Snow
1:55 PM 28.4 °F 23.3 °F 28.4 °F 100% 29.56 in 1.5 mi NNW 4.6 mph - 0.26 in Snow Light Snow
2:15 PM 28.4 °F 21.2 °F 28.4 °F 100% 29.56 in 2.0 mi North 6.9 mph - 0.03 in Snow Light Snow
2:35 PM 28.4 °F 20.4 °F 28.4 °F 100% 29.57 in 1.5 mi North 8.1 mph - 0.08 in Snow Light Snow
2:55 PM 28.4 °F 19.1 °F 28.4 °F 100% 29.57 in 0.8 mi NNE 10.4 mph - 0.26 in Snow Light Snow
3:15 PM 26.6 °F 16.2 °F 26.6 °F 100% 29.58 in 0.8 mi North 11.5 mph - 0.06 in Snow Light Snow
3:35 PM 26.6 °F 16.2 °F 26.6 °F 100% 29.58 in 1.2 mi North 11.5 mph - 0.11 in Snow Light Snow
3:55 PM 26.6 °F 16.8 °F 26.6 °F 100% 29.59 in 1.0 mi North 10.4 mph - 0.15 in Snow Light Snow
4:15 PM 26.6 °F 15.7 °F 26.6 °F 100% 29.60 in 1.0 mi NNE 12.7 mph - 0.04 in Snow Light Snow
4:35 PM 26.6 °F 15.7 °F 26.6 °F 100% 29.60 in 1.2 mi NNE 12.7 mph - 0.08 in Snow Light Snow
4:55 PM 26.6 °F 15.7 °F 26.6 °F 100% 29.61 in 1.5 mi NNE 12.7 mph - 0.10 in Snow Light Snow
5:15 PM 26.6 °F 16.2 °F 26.6 °F 100% 29.62 in 1.5 mi NNE 11.5 mph - 0.01 in Snow Light Snow
5:35 PM 26.6 °F 15.7 °F 26.6 °F 100% 29.63 in 2.5 mi North 12.7 mph - 0.02 in Snow Light Snow
5:55 PM 26.6 °F 16.8 °F 26.6 °F 100% 29.64 in 3.0 mi NNE 10.4 mph - 0.02 in Rain Light Freezing Rain
6:15 PM 24.8 °F 14.6 °F 24.8 °F 100% 29.65 in 1.8 mi North 10.4 mph - N/A Snow Light Snow
6:35 PM 24.8 °F 14.6 °F 24.8 °F 100% 29.66 in 6.0 mi North 10.4 mph - N/A Rain Light Freezing Rain
6:55 PM 24.8 °F 15.3 °F 24.8 °F 100% 29.67 in 9.0 mi North 9.2 mph - N/A Rain Light Freezing Rain
7:15 PM 24.8 °F 14.6 °F 24.8 °F 100% 29.69 in 10.0 mi North 10.4 mph - N/A   Overcast
7:35 PM 23.0 °F 12.4 °F 23.0 °F 100% 29.69 in 10.0 mi North 10.4 mph - N/A   Overcast
7:55 PM 24.8 °F 13.4 °F 24.8 °F 100% 29.70 in 10.0 mi North 12.7 mph - N/A   Overcast
8:15 PM 24.8 °F 13.4 °F 24.8 °F 100% 29.71 in 10.0 mi North 12.7 mph - N/A   Overcast
8:55 PM 19.4 °F 7.9 °F 19.4 °F 100% 29.72 in 10.0 mi North 10.4 mph - N/A   Scattered Clouds
9:15 PM 17.6 °F 5.7 °F 17.6 °F 100% 29.72 in 10.0 mi North 10.4 mph - N/A   Scattered Clouds
9:35 PM 15.8 °F 4.2 °F 15.8 °F 100% 29.73 in 10.0 mi NNW 9.2 mph - N/A   Clear
9:55 PM 14.0 °F 2.9 °F 14.0 °F 100% 29.73 in 10.0 mi North 8.1 mph - N/A   Scattered Clouds
10:15 PM 14.0 °F 5.1 °F 14.0 °F 100% 29.74 in 10.0 mi NNW 5.8 mph - N/A   Mostly Cloudy
10:35 PM 15.8 °F 7.2 °F 15.8 °F 100% 29.74 in 10.0 mi North 5.8 mph - N/A   Overcast
10:55 PM 17.6 °F 10.7 °F 17.6 °F 100% 29.75 in 10.0 mi NW 4.6 mph - N/A   Overcast
11:15 PM 17.6 °F 8.2 °F 17.6 °F 100% 29.76 in 10.0 mi NW 6.9 mph - N/A   Overcast
11:35 PM 17.6 °F 8.2 °F 17.6 °F 100% 29.77 in 10.0 mi NNW 6.9 mph - N/A Snow Light Snow
11:55 PM 15.8 °F 6.1 °F 15.8 °F 100% 29.77 in 10.0 mi NNW 6.9 mph - N/A   Mostly Cloudy